Location: Franzen
(48.6167°N, 15.3833°E)
Time: 07:55:52
(UTC+00:00)

Cosmos 1709 Rocket - Pass Details

Date: 04 August 2021
Orbit: 947 x 1002 km, 82.9° (Epoch: 18 September)

Event Time Altitude Azimuth Distance (km) Brightness Sun altitude
Exits shadow 00:20:46 20° 256° (WSW) 2,110 5.4 -22.0°
Maximum altitude 00:23:33 28° 294° (WNW) 1,803 5.4 -21.8°
Drops below altitude 10° 00:28:56 10° 351° (N) 2,787 7.2 -21.5°
Sets 00:31:56 0° 3° (N) 3,741 8.3 -21.3°
